Date,TemperatureHighF,TemperatureAvgF,TemperatureLowF,DewpointHighF,DewpointAvgF,DewpointLowF,HumidityHigh,HumidityAvg,HumidityLow,PressureMaxIn,PressureMinIn,WindSpeedMaxMPH,WindSpeedAvgMPH,GustSpeedMaxMPH,PrecipitationSumIn
2013-1-1,77.0,62.3,48.3,59.1,50.0,40.4,75,65,54,30.18,30.01,10,2,15,0.00
2013-1-2,80.4,66.4,52.8,62.0,54.1,44.8,75,65,53,30.05,29.95,10,2,12,0.00
2013-1-3,75.5,65.3,57.5,62.8,55.6,49.3,76,71,58,30.14,30.00,11,2,15,0.07
2013-1-4,61.8,57.9,55.3,51.8,49.4,47.2,77,73,69,30.25,30.11,12,6,18,0.01
2013-1-5,75.5,64.4,54.8,58.2,51.8,45.5,75,64,55,30.27,30.15,12,4,16,0.00
2013-1-6,79.4,68.4,62.9,62.4,57.7,53.2,75,69,54,30.18,30.03,12,2,15,0.29
2013-1-7,68.5,63.1,58.0,58.3,51.9,47.1,74,67,56,30.19,30.08,13,6,19,0.00
2013-1-8,82.8,70.6,61.2,64.5,58.0,52.3,75,65,53,30.20,30.10,11,4,18,0.00
2013-1-9,84.3,74.6,68.8,65.3,61.7,60.0,74,65,52,30.27,30.15,15,6,18,0.00
2013-1-10,82.1,73.2,64.8,63.6,60.0,54.0,75,64,53,30.27,30.18,20,6,25,0.00
2013-1-11,66.1,64.1,62.2,56.9,55.0,52.7,74,72,68,30.24,30.17,6,1,9,0.00
2013-1-12,80.4,74.7,62.5,62.2,59.4,54.5,75,59,53,30.17,30.06,13,5,18,0.00
2013-1-13,81.7,70.3,57.6,63.1,57.1,49.5,75,64,52,30.13,30.04,12,2,15,0.00
2013-1-14,81.1,69.3,58.4,62.9,56.6,50.5,75,65,54,30.17,30.08,16,3,19,0.00
2013-1-15,82.0,69.2,57.8,63.0,56.6,49.6,75,65,52,30.12,30.02,12,2,13,0.00
2013-1-16,81.8,68.7,59.5,61.9,55.7,49.8,75,64,48,30.08,29.97,7,1,11,0.00
2013-1-17,77.4,62.2,53.1,63.3,50.7,38.7,75,66,57,30.09,29.96,19,6,30,0.00
2013-1-18,64.8,52.7,39.2,51.3,40.6,27.8,72,63,56,30.27,30.09,18,7,24,0.02
2013-1-19,74.7,63.8,53.8,58.0,50.3,42.9,69,62,55,30.25,30.10,17,6,22,0.00
2013-1-20,74.7,64.5,58.6,57.0,52.4,48.6,74,65,54,30.15,30.01,9,4,15,0.00
2013-1-21,74.0,65.7,60.0,57.3,51.9,47.7,66,61,55,30.07,29.97,8,2,12,0.00
2013-1-22,67.3,57.3,44.3,47.5,41.1,32.9,64,55,34,30.25,30.04,14,4,20,0.00
2013-1-23,69.7,54.6,42.4,38.4,35.1,31.1,71,50,26,30.34,30.24,10,3,15,0.00
2013-1-24,73.5,53.8,39.5,51.3,40.6,31.4,74,62,43,30.29,30.20,13,2,14,0.00
2013-1-25,75.8,58.5,43.6,54.0,44.7,35.9,75,62,42,30.29,30.15,7,2,11,0.00
2013-1-26,76.4,58.6,43.4,56.4,45.7,35.3,74,63,48,30.25,30.13,11,1,14,0.00
2013-1-27,78.7,62.5,46.5,59.1,49.4,38.7,75,63,47,30.29,30.19,12,3,18,0.00
2013-1-28,78.6,68.2,59.6,60.1,55.9,51.3,75,65,53,30.31,30.19,13,4,18,0.00
2013-1-29,83.2,71.2,63.9,64.4,59.1,55.1,76,66,53,30.23,30.07,13,5,19,0.00
2013-1-30,83.8,72.1,63.7,64.6,58.7,54.9,74,63,52,30.09,29.89,17,6,26,0.00
2013-1-31,69.4,58.0,45.8,58.4,42.0,31.7,73,57,31,30.21,29.89,16,6,26,0.06